Location: Caltech
(34.1382°N, 118.1253°W)
Time: 10:28:08
(UTC-07:00)

JAS-1B - Visible Passes

Search period start: 16 August 2017 00:00
Search period end: 26 August 2017 00:00
Orbit: 912 x 1743 km, 99.1° (Epoch: 15 August)

Date Brightness Start Highest point End Pass type
(mag) Time Alt. Az. Time Alt. Az. Time Alt. Az.
16 Aug 8.3 01:34:50 59° ENE 01:34:50 59° ENE 01:44:20 10° N visible
16 Aug 8.9 03:27:07 30° WNW 03:27:07 30° WNW 03:33:54 10° NNW visible
17 Aug 9.8 00:02:03 15° ENE 00:05:01 17° NE 00:10:33 10° NNE visible
17 Aug 8.1 01:54:19 73° NE 01:54:19 73° NE 02:03:33 10° N visible
17 Aug 9.2 03:46:35 22° WNW 03:46:35 22° WNW 03:52:10 10° NW visible
18 Aug 9.5 00:21:32 21° ENE 00:23:36 23° ENE 00:30:34 10° NNE visible
18 Aug 8.1 02:13:48 74° NNW 02:13:48 74° NNW 02:22:41 10° NNW visible
18 Aug 9.5 04:06:05 16° WNW 04:06:05 16° WNW 04:09:53 10° NW visible
19 Aug 9.2 00:41:01 29° ENE 00:42:15 30° ENE 00:50:16 10° N visible
19 Aug 8.2 02:33:17 60° WNW 02:33:17 60° WNW 02:41:39 10° NNW visible
19 Aug 9.8 04:25:34 10° WNW 04:25:34 10° WNW 04:25:44 10° WNW visible
20 Aug 8.9 01:00:31 39° ENE 01:00:57 39° ENE 01:09:47 10° N visible
20 Aug 8.5 02:52:47 46° WNW 02:52:47 46° WNW 03:00:31 10° NNW visible
20 Aug 10.2 23:31:09 10° NE 23:31:43 10° NE 23:32:17 10° NE visible
21 Aug 8.6 01:20:01 51° ENE 01:20:01 51° ENE 01:29:10 10° N visible
21 Aug 8.8 03:12:17 35° WNW 03:12:17 35° WNW 03:19:13 10° NNW visible
21 Aug 10.0 23:47:16 13° ENE 23:50:10 14° NE 23:54:45 10° NNE visible
22 Aug 8.4 01:39:31 63° NE 01:39:31 63° NE 01:48:26 10° N visible
22 Aug 9.2 03:31:48 26° WNW 03:31:48 26° WNW 03:37:42 10° NW visible
23 Aug 9.7 00:06:46 19° ENE 00:08:42 20° NE 00:15:01 10° NNE visible
23 Aug 8.2 01:59:02 70° N 01:59:02 70° N 02:07:37 10° NNW visible
23 Aug 9.4 03:51:18 19° WNW 03:51:18 19° WNW 03:55:48 10° NW visible
24 Aug 9.4 00:26:17 26° ENE 00:27:19 26° ENE 00:34:52 10° N visible
24 Aug 8.3 02:18:34 62° NW 02:18:34 62° NW 02:26:40 10° NNW visible
24 Aug 9.7 04:10:50 13° WNW 04:10:50 13° WNW 04:13:12 10° NW visible
25 Aug 9.1 00:45:49 34° ENE 00:46:00 34° ENE 00:54:28 10° N visible
25 Aug 8.5 02:38:06 50° NW 02:38:06 50° NW 02:45:36 10° NNW visible
